Regional Weather Roundup
Issued by NWS

Home | Current Version | Previous Version | Text Only | Print | Product List | Glossary On
Versions: 1 2 3 4 5 6 7 8 9 10 11 12 13 14 15 16 17 18 19 20 21 22 23 24 25 26 27 28
000
ASUS46 KPQR 060910
RWROR

OREGON REGIONAL WEATHER ROUNDUP
NATIONAL WEATHER SERVICE PORTLAND OR
200 AM PDT FRI MAY 06 2016

NOTE: "FAIR" INDICATES FEW OR NO CLOUDS BELOW 12,000 FEET WITH
NO SIGNIFICANT WEATHER AND/OR OBSTRUCTIONS TO VISIBILITY.

ORZ001>013-061000-
NORTHWEST OREGON


CITY           SKY/WX    TMP DP  RH WIND       PRES   REMARKS
ASTORIA        CLEAR     48  46  93 CALM      30.06S
NEWPORT        CLEAR     50  46  87 CALM      30.07S
PORTLAND       MOCLDY    57  47  69 NW5       30.02R
VANCOUVER WA   MOCLDY    58  46  64 N5        30.01S
SCAPPOOSE      PTCLDY    58  45  62 NW7       30.01S
HILLSBORO      PTCLDY    55  45  68 NW9       30.01S
AURORA         CLEAR     53  46  77 NE3       30.02S
MCMINNVILLE    CLEAR     50  46  86 CALM      30.03S
SALEM          CLEAR     49  45  86 SE3       30.00F
CORVALLIS        N/A     50  45  81 NW9       30.02F
EUGENE         PTCLDY    47  45  93 CALM      30.01S
$$

ORZ021-028-061000-
SOUTHWEST OREGON


CITY           SKY/WX    TMP DP  RH WIND       PRES   REMARKS
NORTH BEND     CLOUDY    54  52  94 N14       30.05F
BROOKINGS      CLEAR     50  48  93 CALM      29.92F
ROSEBURG       CLOUDY    55  48  77 N5        30.00S
SEXTON SUMMIT  FOG       44  44 100 N13G24    29.95F VSB<1/4
MEDFORD        CLOUDY    58  49  72 CALM      29.94F
$$

ORZ014>016-041-061000-
COLUMBIA GORGE


CITY           SKY/WX    TMP DP  RH WIND       PRES   REMARKS
TROUTDALE      PTCLDY    54  49  83 CALM      30.01S
THE DALLES     CLOUDY    61  50  67 NW6       29.96F
$$

ORZ029>031-041-044-049-050-061>064-502-503-505>511-061000-
EASTERN OREGON


CITY           SKY/WX    TMP DP  RH WIND       PRES   REMARKS
REDMOND        CLOUDY    53  49  86 NW12      29.97S
BEND           CLOUDY    52  48  87 N7        29.98S
PRINEVILLE     CLOUDY    54  50  87 NW7       29.97S
KLAMATH FALLS  CLOUDY    51  46  83 NW10      29.91F
LAKEVIEW       PTCLDY    46  43  87 N10       29.93S
HERMISTON      CLOUDY    64  46  52 VRB3      29.94R
PENDLETON      MOCLDY    55  48  77 NW10      29.94S
JOHN DAY       CLEAR     53  49  87 CALM      29.96R
MEACHAM        NOT AVBL
LA GRANDE      PTCLDY    54  43  66 NW13      29.93F
BAKER CITY     CLEAR     52  46  80 NW12      29.94S
BURNS          PTCLDY    43  41  93 W7        29.92S
ROME             N/A     46  42  86 NW5       29.89F
ONTARIO        MOCLDY    61  50  67 NW23      29.83R
$$




USA.gov is the U.S. government's official web portal to all federal, state and local government web resources and services.